When you browse on this site, cookies collect data to enhance your experience and personalize the content and advertising you see.
Visit our Privacy Policy to learn more. By continuing to use the site, you agree to this use of cookies and data.
  • In Lithuania
  • List of Countries
  • For 7 days
  • Water Temperature
  • Weather Map
  • Weather Widgets
  • user-avatar
    Login

    Hourly Weather Kirov

    Today, 18 September, Wednesday

    Time Temperature Precipitation Wind Pressure Humidity
    00:00 +18°C° 0.8 mm 3 mps 751 mmHg 84%
    01:00 +18°C° 0.1 mm 3 mps 750 mmHg 85%
    02:00 +17°C° 0.1 mm 3 mps 750 mmHg 86%
    03:00 +16°C° 0 mm 2 mps 750 mmHg 91%
    04:00 +16°C° 0 mm 2 mps 750 mmHg 89%
    05:00 +16°C° 0 mm 2 mps 750 mmHg 88%
    06:00 +16°C° 0 mm 2 mps 750 mmHg 87%
    07:00 +17°C° 0 mm 3 mps 750 mmHg 79%
    08:00 +19°C° 0 mm 4 mps 750 mmHg 71%
    09:00 +20°C° 0 mm 5 mps 750 mmHg 63%
    10:00 +21°C° 0.1 mm 6 mps 750 mmHg 63%
    11:00 +21°C° 0.1 mm 6 mps 750 mmHg 63%
    12:00 +21°C° 0.1 mm 7 mps 749 mmHg 63%
    13:00 +23°C° 0.1 mm 8 mps 749 mmHg 56%
    14:00 +24°C° 0.1 mm 10 mps 748 mmHg 49%
    15:00 +27°C° 0.1 mm 12 mps 748 mmHg 43%
    16:00 +24°C° 0.3 mm 11 mps 748 mmHg 50%
    17:00 +22°C° 0.3 mm 11 mps 748 mmHg 56%
    18:00 +19°C° 0.3 mm 10 mps 749 mmHg 63%
    19:00 +18°C° 0.3 mm 9 mps 750 mmHg 61%
    20:00 +16°C° 0.3 mm 7 mps 751 mmHg 59%
    21:00 +15°C° 0.3 mm 6 mps 752 mmHg 57%
    22:00 +14°C° 0 mm 5 mps 752 mmHg 54%
    23:00 +13°C° 0 mm 5 mps 753 mmHg 51%

    Tomorrow, 19 September, Thursday

    Time Temperature Precipitation Wind Pressure Humidity
    00:00 +12°C° 0 mm 5 mps 753 mmHg 48%
    01:00 +12°C° 0 mm 5 mps 754 mmHg 49%
    02:00 +12°C° 0 mm 5 mps 754 mmHg 49%
    03:00 +10°C° 0 mm 5 mps 755 mmHg 49%
    04:00 +10°C° 0 mm 5 mps 755 mmHg 52%
    05:00 +9°C° 0 mm 5 mps 756 mmHg 55%
    06:00 +9°C° 0 mm 5 mps 756 mmHg 58%
    07:00 +10°C° 0 mm 5 mps 756 mmHg 55%
    08:00 +12°C° 0 mm 5 mps 757 mmHg 53%
    09:00 +13°C° 0 mm 6 mps 757 mmHg 50%
    10:00 +14°C° 0 mm 6 mps 757 mmHg 47%
    11:00 +15°C° 0 mm 6 mps 758 mmHg 44%
    12:00 +16°C° 0 mm 6 mps 758 mmHg 41%
    13:00 +17°C° 0 mm 6 mps 758 mmHg 39%
    14:00 +19°C° 0 mm 6 mps 758 mmHg 37%
    15:00 +19°C° 0 mm 6 mps 758 mmHg 35%
    16:00 +19°C° 0 mm 5 mps 758 mmHg 37%
    17:00 +18°C° 0 mm 4 mps 758 mmHg 40%
    18:00 +17°C° 0 mm 4 mps 758 mmHg 42%
    19:00 +16°C° 0 mm 3 mps 758 mmHg 47%
    20:00 +16°C° 0 mm 3 mps 758 mmHg 51%
    21:00 +14°C° 0 mm 3 mps 758 mmHg 56%
    22:00 +13°C° 0 mm 3 mps 758 mmHg 56%
    23:00 +13°C° 0 mm 3 mps 758 mmHg 57%

    Day after tomorrow, 20 September, Friday

    Time Temperature Precipitation Wind Pressure Humidity
    00:00 +13°C° 0 mm 2 mps 758 mmHg 57%
    01:00 +13°C° 0 mm 2 mps 758 mmHg 56%
    02:00 +13°C° 0 mm 2 mps 758 mmHg 55%
    03:00 +13°C° 0 mm 1 mps 757 mmHg 54%
    04:00 +13°C° 0 mm 1 mps 757 mmHg 53%
    05:00 +13°C° 0 mm 1 mps 757 mmHg 51%
    06:00 +12°C° 0 mm 0 mps 757 mmHg 50%
    07:00 +14°C° 0 mm 1 mps 757 mmHg 47%
    08:00 +15°C° 0 mm 1 mps 757 mmHg 45%
    09:00 +16°C° 0 mm 2 mps 757 mmHg 42%
    10:00 +17°C° 0 mm 2 mps 757 mmHg 40%
    11:00 +17°C° 0 mm 2 mps 757 mmHg 38%
    12:00 +18°C° 0 mm 3 mps 757 mmHg 36%
    13:00 +18°C° 0 mm 3 mps 756 mmHg 36%
    14:00 +18°C° 0 mm 3 mps 756 mmHg 36%
    15:00 +18°C° 0 mm 3 mps 756 mmHg 36%
    16:00 +18°C° 0 mm 3 mps 756 mmHg 38%
    17:00 +17°C° 0 mm 3 mps 756 mmHg 40%
    18:00 +17°C° 0 mm 3 mps 755 mmHg 42%
    19:00 +16°C° 0 mm 3 mps 756 mmHg 46%
    20:00 +14°C° 0 mm 3 mps 756 mmHg 50%
    21:00 +13°C° 0 mm 4 mps 756 mmHg 54%
    22:00 +12°C° 0 mm 4 mps 755 mmHg 58%
    23:00 +12°C° 0 mm 4 mps 755 mmHg 62%

    21 September, Saturday

    Time Temperature Precipitation Wind Pressure Humidity
    00:00 +11°C° 0 mm 4 mps 755 mmHg 65%
    01:00 +11°C° 0 mm 4 mps 755 mmHg 66%
    02:00 +11°C° 0 mm 4 mps 755 mmHg 67%
    03:00 +11°C° 0 mm 3 mps 755 mmHg 68%
    04:00 +11°C° 0.1 mm 3 mps 755 mmHg 71%
    05:00 +10°C° 0.1 mm 2 mps 754 mmHg 73%
    06:00 +10°C° 0.1 mm 2 mps 754 mmHg 76%
    07:00 +12°C° 0.2 mm 2 mps 755 mmHg 69%
    08:00 +12°C° 0.2 mm 3 mps 755 mmHg 61%
    09:00 +13°C° 0.2 mm 3 mps 755 mmHg 54%
    10:00 +16°C° 0 mm 3 mps 755 mmHg 48%
    11:00 +17°C° 0 mm 4 mps 755 mmHg 41%
    12:00 +18°C° 0 mm 4 mps 755 mmHg 35%
    13:00 +17°C° 0.1 mm 5 mps 755 mmHg 37%
    14:00 +16°C° 0.1 mm 5 mps 755 mmHg 39%
    15:00 +16°C° 0.1 mm 6 mps 755 mmHg 41%
    16:00 +15°C° 0.3 mm 6 mps 755 mmHg 45%
    17:00 +14°C° 0.3 mm 6 mps 756 mmHg 48%
    18:00 +13°C° 0.3 mm 6 mps 756 mmHg 51%
    19:00 +12°C° 0 mm 5 mps 757 mmHg 53%
    20:00 +11°C° 0 mm 4 mps 758 mmHg 54%
    21:00 +10°C° 0 mm 4 mps 758 mmHg 56%
    22:00 +10°C° 0 mm 4 mps 758 mmHg 56%
    23:00 +8°C° 0 mm 4 mps 759 mmHg 56%

    22 September, Sunday

    Time Temperature Precipitation Wind Pressure Humidity
    00:00 +9°C° 0 mm 3 mps 759 mmHg 56%
    01:00 +9°C° 0 mm 3 mps 759 mmHg 56%
    02:00 +8°C° 0 mm 3 mps 759 mmHg 55%
    03:00 +8°C° 0 mm 3 mps 759 mmHg 55%
    04:00 +7°C° 0 mm 4 mps 759 mmHg 53%
    05:00 +7°C° 0 mm 4 mps 759 mmHg 51%
    06:00 +7°C° 0 mm 4 mps 758 mmHg 50%
    07:00 +8°C° 0 mm 5 mps 758 mmHg 48%
    08:00 +9°C° 0 mm 6 mps 758 mmHg 47%
    09:00 +11°C° 0 mm 7 mps 758 mmHg 45%
    10:00 +12°C° 0 mm 8 mps 757 mmHg 44%
    11:00 +15°C° 0 mm 9 mps 757 mmHg 43%
    12:00 +17°C° 0 mm 10 mps 756 mmHg 41%
    13:00 +18°C° 0 mm 10 mps 756 mmHg 40%
    14:00 +18°C° 0 mm 11 mps 755 mmHg 38%
    15:00 +19°C° 0 mm 11 mps 754 mmHg 36%
    16:00 +19°C° 0 mm 10 mps 754 mmHg 38%
    17:00 +18°C° 0 mm 9 mps 754 mmHg 40%
    18:00 +18°C° 0 mm 8 mps 753 mmHg 41%
    19:00 +18°C° 0 mm 8 mps 754 mmHg 42%
    20:00 +17°C° 0 mm 8 mps 754 mmHg 42%
    21:00 +17°C° 0 mm 8 mps 754 mmHg 42%
    22:00 +16°C° 0 mm 7 mps 755 mmHg 46%
    23:00 +16°C° 0 mm 6 mps 755 mmHg 49%

    23 September, Monday

    Time Temperature Precipitation Wind Pressure Humidity
    00:00 +15°C° 0 mm 5 mps 756 mmHg 53%
    01:00 +13°C° 0 mm 5 mps 756 mmHg 51%
    02:00 +12°C° 0 mm 4 mps 757 mmHg 49%
    03:00 +10°C° 0 mm 3 mps 757 mmHg 48%
    04:00 +9°C° 0 mm 3 mps 758 mmHg 50%
    05:00 +8°C° 0 mm 3 mps 758 mmHg 52%
    06:00 +7°C° 0 mm 2 mps 759 mmHg 54%
    07:00 +8°C° 0 mm 3 mps 759 mmHg 50%
    08:00 +9°C° 0 mm 3 mps 760 mmHg 46%
    09:00 +10°C° 0 mm 3 mps 760 mmHg 42%
    10:00 +12°C° 0 mm 3 mps 760 mmHg 37%
    11:00 +14°C° 0 mm 2 mps 760 mmHg 32%
    12:00 +16°C° 0 mm 2 mps 760 mmHg 26%
    13:00 +16°C° 0 mm 2 mps 760 mmHg 24%
    14:00 +18°C° 0 mm 1 mps 759 mmHg 22%
    15:00 +19°C° 0 mm 1 mps 758 mmHg 20%
    16:00 +18°C° 0 mm 1 mps 758 mmHg 21%
    17:00 +18°C° 0 mm 1 mps 758 mmHg 23%
    18:00 +16°C° 0 mm 1 mps 758 mmHg 24%
    19:00 +15°C° 0 mm 1 mps 758 mmHg 25%
    20:00 +15°C° 0 mm 2 mps 758 mmHg 26%
    21:00 +14°C° 0 mm 2 mps 758 mmHg 27%
    22:00 +13°C° 0 mm 2 mps 758 mmHg 28%
    23:00 +12°C° 0 mm 3 mps 757 mmHg 30%
    Show more